CAPE
233 989 1093 567 12 0 0 0 0 0 0 0 0 0 0 0 0 0 0 0 0 0 3 17 46 65 96 26 0 0 0 0 0 30 0 0 0 11 74 128 110 11 59
425 1297 1104 478 19 0 0 0 0 0 0 0 0 0 0 0 0 0 0 0 0 0 0 26 135 149 72 2 0 0 0 0 0 4 138 223 0 0 42 70 19 0 0
376 1348 1042 342 31 0 0 0 0 0 0 0 16 51 0 0 0 0 0 0 0 0 0 48 111 74 0 0 0 0 0 0 0 0 0 0 192 37 0 0 0 0 0
449 1184 891 348 42 9 0 0 0 0 0 0 14 117 22 0 0 0 0 0 1 0 0 0 0 0 0 0 0 0 0 0 0 0 0 0 0 419 0 0 0 0 0
563 973 828 386 79 43 0 0 0 0 0 0 80 152 14 0 0 0 0 0 0 0 0 0 0 0 0 0 0 0 0 0 0 0 0 0 0 49 16 0 0 13 19
499 997 946 509 182 99 0 0 0 0 0 0 73 65 0 0 0 0 0 0 0 0 0 0 0 0 0 0 0 0 0 0 0 0 0 0 0 114 21 0 4 52 19
533 973 988 660 367 139 0 0 0 0 0 0 0 0 0 0 0 0 0 0 0 0 0 0 0 0 0 0 0 0 0 0 0 0 0 0 0 13 21 49 69 54 44
419 804 907 712 452 199 0 27 10 0 0 0 0 0 0 0 0 0 0 0 0 0 0 0 0 0 0 0 0 0 0 0 0 0 0 0 0 0 116 198 45 0 17
429 624 756 809 545 252 71 75 41 0 0 0 0 0 0 0 0 0 0 0 0 0 0 0 0 0 0 0 0 0 0 0 0 0 0 0 0 0 40 429 67 0 11
325 459 683 688 750 441 241 174 106 2 0 0 0 0 0 0 0 0 0 0 0 0 0 0 0 0 0 0 0 0 0 0 0 0 0 0 0 0 86 534 135 9 0
38 128 384 364 384 393 347 370 197 35 0 0 0 0 0 0 0 0 0 0 0 0 0 0 0 0 0 0 0 0 0 0 0 0 0 0 0 0 0 399 75 4 0
0 2 27 26 60 178 407 438 201 65 0 0 0 0 0 0 0 0 0 0 0 0 0 0 0 0 0 0 0 0 0 0 0 0 0 0 31 0 0 213 6 0 0
0 0 0 0 0 0 13 64 29 0 0 0 0 0 0 0 0 0 0 0 1 8 0 0 0 0 0 0 0 0 0 0 0 0 0 12 155 52 19 0 0 0 11
0 0 0 0 0 0 0 0 0 0 0 0 0 0 0 0 0 3 0 0 9 21 0 0 0 0 0 0 0 0 0 1 3 43 105 122 273 129 34 29 39 36 86
0 0 0 0 0 0 0 0 0 0 0 0 0 0 0 0 19 215 172 33 82 33 2 0 0 0 0 0 0 4 6 68 237 215 235 376 464 410 287 358 323 206 226
0 0 0 0 0 0 0 0 0 0 0 0 3 80 159 421 908 715 451 329 285 153 70 25 72 269 464 490 25 0 0 65 555 374 426 374 463 643 848 937 911 797 718
34 2 0 0 24 38 13 0 24 72 86 223 234 389 448 796 899 600 410 374 789 1438 1161 1001 820 673 513 378 231 28 0 314 276 189 166 139 146 198 446 831 934 833 1003
24 41 53 110 206 182 238 123 300 406 415 389 486 657 836 1063 919 793 978 1342 1517 1271 1048 832 405 305 190 123 135 154 183 110 23 25 22 8 0 0 144 332 580 931 486
188 172 74 355 520 695 816 543 615 632 847 841 913 901 1136 1145 952 1029 1529 1464 1156 856 458 238 5 0 0 0 0 0 0 0 0 0 0 0 0 0 0 89 513 726 411
256 224 270 1043 1401 1269 1046 888 847 661 418 978 1199 1271 1380 1389 1550 1637 1416 1020 600 96 0 0 0 0 0 0 0 0 0 0 0 0 0 0 0 0 0 63 92 360 468
62 0 4 651 1297 1262 1144 911 777 502 714 1143 1242 1240 1339 1410 1335 911 489 9 0 0 0 0 0 0 0 0 0 0 0 0 0 0 0 0 0 0 0 0 0 0 58
5 3 0 18 868 1134 1169 936 752 865 1013 1169 1009 851 565 252 40 85 0 0 0 0 0 0 0 0 0 0 0 0 0 0 0 0 0 0 0 0 0 0 0 0 0
17 0 0 16 0 565 1048 1000 962 844 623 487 264 113 15 0 0 0 0 0 0 0 0 0 0 0 0 0 0 0 0 0 0 0 0 0 0 0 0 0 0 0 0
0 0 0 0 0 257 1038 1050 1057 984 751 292 40 0 0 0 0 0 0 0 0 0 0 0 0 0 0 0 0 0 0 0 0 0 0 0 0 0 0 0 0 0 0
0 0 0 0 40 286 627 943 997 943 305 3 0 0 0 0 0 0 0 0 0 0 0 0 0 0 0 0 0 0 0 0 0 0 0 0 0 0 0 0 0 0 0
0 0 0 0 4 74 659 711 737 388 30 0 0 0 0 0 0 0 0 0 0 0 0 0 0 0 0 0 0 0 0 0 0 0 0 0 0 0 0 0 0 0 0
CIN
-483 -208 -203 -294 -226 0 0 0 0 0 0 0 0 0 0 0 0 0 0 0 0 0 -282 -407 -299 -254 -202 -255 0 0 0 0 0 -113 0 0 0 -144 -174 -122 -165 -285 -230
-446 -188 -206 -323 -242 0 0 0 0 0 0 0 0 0 0 0 0 0 0 0 0 0 0 -371 -210 -185 -211 -112 0 0 0 0 0 -23 -148 -113 0 0 -237 -185 -221 0 0
-431 -178 -236 -381 -571 0 0 0 0 0 0 0 -569 -502 -86 0 0 0 0 0 0 0 -129 -330 -216 -222 0 0 0 0 0 0 0 0 0 0 -134 -131 0 0 0 0 0
-456 -233 -286 -404 -604 -662 0 0 0 0 0 0 -387 -446 -543 0 0 0 0 0 -492 0 0 0 0 0 0 0 0 0 0 0 0 0 0 0 0 -98 0 0 0 0 0
-458 -298 -305 -388 -529 -621 0 0 0 0 0 0 -536 -432 -433 0 0 0 0 0 0 0 0 0 0 0 0 0 0 0 0 0 0 0 0 0 0 -58 -77 0 0 -177 -230
-477 -309 -288 -364 -443 -496 0 0 0 0 0 0 -556 -513 -12 0 0 0 0 0 0 0 0 0 0 0 0 0 0 0 0 0 0 0 0 0 0 -144 -79 0 -23 -152 -201
-489 -337 -297 -363 -416 -490 0 0 0 0 0 0 0 -34 0 0 0 0 0 0 0 0 0 0 0 0 0 0 0 0 0 0 0 0 0 0 0 -44 -99 -136 -144 -147 -180
-521 -408 -334 -355 -418 -494 0 -611 -445 0 0 0 0 0 0 0 0 0 0 0 0 0 0 0 0 0 0 0 0 0 0 0 0 0 0 0 0 0 -147 -105 -128 0 -177
-457 -422 -389 -358 -423 -482 -586 -594 -624 -76 0 0 0 0 0 0 0 0 0 0 0 0 0 0 0 0 0 0 0 0 0 0 0 0 0 0 0 0 -140 -91 -108 0 -153
-531 -467 -379 -359 -347 -419 -486 -519 -540 -89 0 0 0 0 0 0 0 0 0 0 0 0 0 0 0 0 0 0 0 0 0 0 0 0 0 0 0 0 -98 -94 -118 -121 0
-525 -564 -461 -472 -464 -444 -436 -425 -474 -579 0 0 0 0 0 0 0 0 0 0 0 0 0 0 0 0 0 0 0 0 0 0 0 0 0 0 0 0 0 -88 -115 -44 0
0 -226 -608 -347 -606 -507 -409 -397 -496 -570 0 0 0 0 0 0 0 0 0 0 0 0 0 0 0 0 0 0 0 0 0 0 0 0 0 0 -104 0 0 -81 -82 0 0
0 0 0 0 0 0 -117 -594 -615 -13 0 0 0 0 0 0 0 0 0 -35 -78 -343 0 0 0 0 0 0 0 0 0 0 0 0 0 -94 -75 -37 -53 0 0 0 -54
0 0 0 0 0 0 0 0 0 0 0 0 0 0 0 0 0 -44 -38 -26 -300 -353 0 0 0 0 0 0 0 0 0 -23 -13 -121 -169 -87 -35 -52 -48 -65 -51 -76 -90
0 0 0 0 0 0 0 0 0 0 0 0 0 0 0 0 -149 -263 -263 -316 -248 -281 -220 0 0 0 0 0 0 -112 -47 -122 -109 -69 -51 -39 -30 -41 -48 -34 -43 -46 -74
0 0 0 0 0 0 0 0 0 0 0 0 -258 -454 -402 -267 -137 -149 -169 -173 -169 -202 -222 -179 -154 -95 -79 -94 -141 0 0 -114 -75 -66 -53 -52 -43 -32 -28 -17 -20 -32 -49
-423 -495 0 0 -521 -531 -500 0 -574 -546 -540 -424 -370 -303 -247 -174 -106 -120 -131 -129 -59 -31 -42 -51 -57 -60 -68 -83 -112 -147 0 -103 -84 -76 -71 -70 -80 -65 -47 -24 -12 -8 -29
-367 -442 -425 -455 -423 -428 -401 -438 -378 -334 -339 -314 -230 -174 -138 -102 -89 -95 -72 -38 -27 -48 -51 -56 -96 -97 -106 -95 -144 -143 -137 -125 -88 -84 -87 -17 0 0 -90 -90 -56 -36 -35
-310 -231 -279 -281 -260 -224 -197 -195 -202 -200 -191 -219 -203 -159 -87 -61 -72 -66 -29 -32 -52 -68 -120 -139 -13 0 0 0 0 0 0 0 0 0 0 0 0 0 0 -66 -43 -22 -24
-194 -207 -123 -50 -27 -29 -101 -95 -149 -109 -205 -146 -165 -98 -52 -49 -37 -35 -45 -81 -142 -247 0 0 0 0 0 0 0 0 0 0 0 0 0 0 0 0 0 -70 -76 -18 -8
-219 -1 -388 -9 -36 -22 -54 -106 -95 -109 -143 -137 -167 -107 -81 -69 -80 -117 -218 -175 0 0 0 0 0 0 0 0 0 0 0 0 0 0 0 0 0 0 0 0 0 -0 -148
-221 -357 -66 -4 -49 -35 -77 -50 -48 -62 -141 -143 -156 -177 -218 -281 -392 -247 0 0 0 0 0 0 0 0 0 0 0 0 0 0 0 0 0 0 0 0 0 0 0 0 0
-408 0 0 -150 0 -11 -27 -74 -85 -71 -154 -213 -272 -327 -453 -147 0 0 0 0 0 0 0 0 0 0 0 0 0 0 0 0 0 0 0 0 0 0 0 0 0 0 0
0 0 0 0 -0 -18 -37 -61 -54 -37 -137 -273 -388 -7 0 0 0 0 0 0 0 0 0 0 0 0 0 0 0 0 0 0 0 0 0 0 0 0 0 0 0 0 0
0 0 0 0 -78 -16 -13 -40 -92 -72 -213 -289 0 0 0 0 0 0 0 0 0 0 0 0 0 0 0 0 0 0 0 0 0 0 0 0 0 0 0 0 0 0 0
0 0 0 0 -297 -25 -5 -50 -71 -157 -403 0 0 0 0 0 0 0 0 0 0 0 0 0 0 0 0 0 0 0 0 0 0 0 0 0 0 0 0 0 0 0 0
Wind_Speed
29 28 31 26 25 23 22 22 22 22 22 22 21 21 21 22 23 24 25 27 27 28 28 27 27 26 26 26 26 26 25 24 23 23 23 22 21 19 20 19 20 19 19
32 29 32 26 25 24 23 23 22 22 22 22 20 20 21 21 23 25 26 26 25 25 25 25 25 25 24 24 24 24 23 22 22 20 17 17 17 16 17 18 18 18 17
24 31 28 25 24 23 23 23 22 22 22 21 21 20 20 21 23 23 24 24 23 23 23 23 23 23 23 22 21 20 20 19 19 17 16 14 12 13 14 15 16 16 16
23 27 23 24 23 22 23 22 22 22 22 21 21 19 19 21 22 24 23 22 22 22 22 22 22 21 21 20 19 18 17 17 17 16 15 13 11 10 11 12 14 14 14
17 19 20 21 21 21 21 21 22 22 22 22 20 19 19 20 21 21 21 21 21 21 21 21 20 20 20 19 18 17 16 15 15 15 16 13 10 9 10 10 11 12 12
15 15 18 18 17 18 20 21 21 20 20 20 19 18 18 19 20 19 19 20 19 19 19 19 19 18 18 18 18 18 15 14 13 14 16 17 17 11 9 9 9 10 10
14 15 16 18 17 18 20 19 18 17 18 18 17 16 17 17 17 18 18 18 18 18 18 18 18 17 16 16 17 16 14 13 14 13 17 18 17 8 6 8 8 9 8
13 15 14 16 17 19 19 17 16 15 15 15 15 15 15 15 15 16 16 16 17 17 17 17 16 15 14 13 12 12 13 12 13 12 17 16 13 10 4 3 7 8 8
9 11 13 13 16 18 17 16 14 13 11 12 14 13 14 14 14 14 14 15 15 16 16 15 14 13 12 10 9 7 9 11 12 11 10 12 11 10 3 2 4 6 7
9 9 11 10 8 8 8 10 8 8 9 12 12 12 12 12 12 13 13 14 14 14 14 13 12 11 10 8 8 8 8 9 11 10 10 9 9 10 6 4 4 6 7
9 9 10 11 9 8 8 7 6 6 6 7 9 10 9 9 10 11 11 12 12 13 12 11 11 10 9 7 7 8 9 12 13 13 13 12 12 10 8 6 6 7 7
12 11 10 9 8 8 9 8 6 4 3 3 3 5 5 7 9 9 10 10 11 12 11 11 11 10 10 11 12 12 14 14 14 15 16 14 16 16 11 7 7 7 8
14 12 11 10 10 8 8 8 7 5 3 2 1 2 5 6 8 8 9 10 10 10 11 13 14 13 12 13 14 13 14 15 16 18 17 17 18 20 14 10 9 10 10
17 14 12 11 10 8 7 7 6 5 4 3 2 2 3 5 6 6 6 7 9 10 10 11 13 14 15 13 12 15 19 16 24 26 22 21 20 19 15 13 12 13 13
17 17 15 13 12 10 9 7 6 6 5 4 5 2 3 4 6 9 8 9 12 12 11 14 16 16 18 20 18 21 25 20 25 28 27 25 24 20 16 16 16 15 14
15 16 16 15 14 12 11 8 7 5 4 4 4 1 4 4 8 12 10 14 17 17 18 19 21 23 24 24 24 25 29 29 33 32 32 33 33 28 21 19 17 16 14
16 15 17 17 16 13 10 8 8 7 5 3 5 5 3 5 8 12 14 18 21 22 22 22 23 26 27 28 27 26 25 27 28 32 33 34 35 34 29 24 21 22 14
23 19 18 19 18 16 13 12 12 10 7 7 6 6 4 5 9 11 14 17 18 20 23 24 26 27 29 30 29 28 27 28 30 32 34 33 34 33 35 32 27 23 19
22 26 22 20 19 17 15 16 16 13 9 6 5 6 6 10 9 12 14 16 18 22 24 25 28 28 30 33 31 30 31 31 32 32 35 34 35 33 36 36 32 25 20
22 20 24 28 20 17 12 12 11 12 10 8 5 6 8 10 9 11 14 17 20 22 25 26 28 28 32 34 31 31 30 28 30 33 34 33 34 35 35 34 33 29 26
34 30 26 39 25 21 18 16 15 18 13 8 5 5 7 8 10 11 14 17 20 23 24 27 27 31 34 38 33 35 29 27 30 36 33 33 34 35 35 35 36 35 35
16 25 38 37 29 22 20 19 19 15 9 6 6 6 6 7 10 12 14 17 19 22 25 29 31 32 32 37 37 34 36 32 31 33 32 34 35 35 36 36 37 39 38
19 15 18 34 32 35 22 16 17 16 10 7 3 2 6 8 10 12 14 17 20 22 25 29 32 33 36 34 34 34 36 37 42 29 28 38 36 36 38 40 39 38 39
24 19 26 33 39 41 20 18 17 15 15 6 2 3 6 8 10 13 15 17 20 22 26 29 32 33 32 35 31 31 29 32 36 41 31 30 38 39 40 41 40 38 39
23 26 21 34 32 18 23 21 19 12 10 5 2 4 5 8 11 13 15 17 20 23 25 28 32 32 31 33 33 33 33 32 33 36 43 44 39 40 40 41 39 36 34
26 21 19 17 18 16 32 21 17 17 7 3 2 2 5 8 11 14 17 20 22 23 26 28 29 31 32 33 32 34 36 37 37 38 42 44 45 41 40 36 35 33 32
Wind_Direction
136 132 131 122 115 108 101 97 92 92 90 88 84 81 78 75 74 74 75 78 78 78 79 78 76 72 71 72 70 69 71 69 71 73 74 72 74 78 71 71 72 73 69
133 131 132 123 118 112 107 102 97 96 94 91 86 83 81 77 79 81 81 79 77 77 76 77 73 69 70 74 73 71 71 71 69 70 79 76 74 76 76 68 68 68 70
125 132 128 124 119 115 111 106 101 101 99 95 90 86 83 81 81 80 82 80 76 75 76 76 74 71 69 70 73 74 74 72 67 68 70 76 81 78 81 73 67 63 66
125 129 126 125 122 118 114 109 106 105 104 101 95 88 84 83 82 86 83 79 73 73 74 74 75 72 68 67 66 71 75 69 65 67 63 66 75 89 81 71 64 59 62
125 127 127 127 124 121 117 113 111 110 110 107 100 92 88 84 84 84 79 74 74 73 74 74 71 69 64 60 61 63 65 65 62 55 50 55 66 84 79 68 66 61 59
128 128 129 129 127 123 120 118 115 111 111 109 104 95 91 87 85 80 77 77 75 72 71 69 67 68 61 52 49 46 60 62 59 48 39 37 34 54 65 65 68 61 60
128 128 130 131 130 127 125 121 116 112 112 112 106 99 93 86 82 81 77 74 72 70 67 70 71 68 69 56 45 42 50 53 44 40 25 21 24 44 63 66 60 53 63
134 131 134 134 133 132 130 126 120 116 114 113 109 102 92 85 82 78 73 71 73 72 73 74 71 73 78 80 72 57 46 42 33 29 15 14 23 32 56 58 41 41 42
153 139 139 141 137 136 135 131 127 121 117 115 111 101 94 89 82 75 71 72 75 76 77 75 79 79 82 88 80 71 52 37 33 33 33 25 22 19 37 24 16 19 20
161 150 146 154 172 172 162 141 140 133 123 120 114 105 97 86 82 78 77 81 84 80 81 80 83 82 82 78 66 49 39 29 26 25 27 25 16 7 358 330 342 351 357
190 176 160 151 174 192 203 192 163 143 127 118 110 101 89 78 80 82 79 83 80 78 81 81 75 72 71 70 65 45 32 24 18 17 14 10 4 357 347 336 328 332 338
195 182 176 171 175 191 217 218 209 201 187 133 98 81 60 56 72 74 80 78 77 63 74 59 51 49 42 36 34 28 23 16 13 10 8 5 2 358 355 342 323 318 325
182 197 183 174 165 173 210 210 216 225 211 216 119 67 70 63 76 80 60 45 46 51 42 32 27 30 28 20 17 15 13 8 5 1 359 354 350 352 350 342 327 322 334
173 183 195 191 180 179 184 183 195 211 222 240 273 338 28 43 59 60 65 93 46 38 43 34 22 14 9 9 7 2 357 359 347 344 345 344 344 345 344 332 320 319 329
184 184 183 192 192 195 187 200 207 219 241 260 284 345 64 45 36 2 27 28 15 18 24 12 10 11 7 3 4 2 352 360 349 343 344 342 341 336 330 329 320 321 327
198 202 205 208 218 218 222 217 210 215 219 250 277 22 87 24 359 349 1 351 350 358 360 357 356 355 354 355 351 347 350 345 340 341 341 340 340 339 332 326 325 323 325
209 203 200 211 219 215 214 225 234 237 234 255 284 313 359 3 351 349 344 339 340 352 358 3 359 354 353 352 350 350 348 346 343 342 341 340 340 340 338 332 325 326 318
237 226 217 219 211 216 228 243 249 254 257 262 274 298 328 343 338 347 353 348 354 357 359 356 356 353 350 348 347 347 346 344 342 342 342 343 343 343 343 340 336 333 339
235 241 234 227 220 226 228 242 254 258 253 250 261 282 313 320 341 348 354 356 356 353 356 355 352 353 350 347 346 347 345 345 346 346 344 344 343 345 342 342 340 342 332
237 253 258 241 230 225 220 228 234 252 264 267 284 310 317 333 348 358 356 356 0 358 354 356 355 355 352 348 348 346 346 347 348 346 345 345 345 343 343 344 342 340 331
248 254 261 257 229 231 234 239 235 239 253 276 301 306 323 340 347 352 1 359 0 1 2 0 358 353 349 346 346 345 350 350 349 343 347 346 345 343 342 342 341 337 332
266 274 266 273 235 238 240 238 243 243 251 250 279 298 311 340 352 359 357 359 6 4 0 358 355 353 352 351 346 345 342 347 348 346 350 349 347 346 344 340 337 335 333
268 282 268 264 272 256 232 230 243 242 238 253 280 335 7 13 6 12 13 8 7 5 1 358 355 353 347 351 354 350 342 339 338 349 350 344 346 345 341 336 332 332 334
268 275 279 278 278 258 223 219 226 237 245 239 173 15 2 11 20 20 17 11 7 5 0 358 356 354 355 349 354 356 354 347 342 337 344 346 342 340 338 336 333 331 332
271 277 287 283 290 222 232 225 226 224 162 146 56 52 41 28 17 17 14 12 5 2 0 358 355 355 355 352 350 349 347 345 343 338 334 335 339 339 339 338 337 336 338
280 277 299 305 309 236 236 228 174 162 157 140 103 60 50 21 9 12 8 1 2 1 359 357 356 354 352 350 350 347 342 340 339 339 334 334 334 338 339 343 344 343 345